Tracking 35331 objects as of 16-Sep-2026
HD Live streaming from Space Station
objects crossing your sky now

COSMOS 1484 DEB


COSMOS 1484 DEB is no longer on orbit


NORAD ID: 23151
Int'l Code: 1983-075AV
Launch date: July 24, 1983
Source: Commonwealth of Independent States (former USSR) (CIS)
Launch site: TYURATAM MISSILE AND SPACE COMPLEX (TTMTR)
Decay date: 1995-03-21

Note: This is SATELLITE DEBRIS
Your satellite tracking list
Your tracking list is empty




NASA's NSSDC Master Catalog

Two Line Element Set (TLE):
1 23151U 83075 AV 95079.63643321  .02350025 +12881-1 +74119-2 0  9995
2 23151 097.4619 114.1204 0011876 226.7646 132.9428 15.98135952022875
Source of the keplerian elements: AFSPC